Tracking 34138 objects as of 15-May-2026
HD Live streaming from Space Station
objects crossing your sky now

STARLINK-37124

Track STARLINK-37124 now!
10-day predictions
STARLINK-37124 is classified as:


NORAD ID: 68283
Int'l Code: 2026-055X
Perigee: 481.5 km
Apogee: 483.3 km
Inclination: 53.2 °
Period: 94.1 minutes
Semi major axis: 6853 km
RCS: Unknown
Launch date: March 19, 2026
Source: United States (US)
Launch site: AIR FORCE EASTERN TEST RANGE (AFETR)
Your satellite tracking list
Your tracking list is empty




NASA's NSSDC Master Catalog

Two Line Element Set (TLE):
1 68283U 26055X   26134.40388152  .00015333  00000-0  52875-3 0  9997
2 68283  53.1602  14.6280 0001310  83.3931 276.7219 15.30200485  9987
Source of the keplerian elements: AFSPC